Weather History for El Reno, OK

Change the Weather History Date:

Tuesday, January 28, 2014

  Actual Average (KOKC) Record (KOKC)
Temperature  
Mean Temperature 20 °F 40 °F  
Max Temperature 28 °F 51 °F 78 °F (1893)
Min Temperature 12 °F 29 °F 5 °F (1948)
Degree Days  
Heating Degree Days 45 25  
Month to date heating degree days 722  
Since 1 July heating degree days 2077  
Moisture  
Dew Point 7 °F    
Average Humidity 62    
Maximum Humidity 93    
Minimum Humidity 30    
Precipitation  
Precipitation 0.00 in 0.05 in 1.06 in (2010)
Month to date precipitation 1.23  
Year to date precipitation 1.23  
Snow  
Snow 0.00 in 0.10 in 6.00 in (1895)
Month to date snowfall 2.5  
Since 1 July snowfall 5.0  
Snow Depth -    
Sea Level Pressure  
Sea Level Pressure 30.42 in    
Wind  
Wind Speed 11 mph (North)    
Max Wind Speed 21 mph    
Max Gust Speed -    
Visibility 9 miles    
Events Snow    
T = Trace of Precipitation, MM = Missing Value Source: NWS Daily Summary

Daily Weather History Graph

Daily Weather History Graph

Search for Another Location

Airport:

Trip Planner

Search our weather history database for the weather conditions in past years. The results will help you decide how hot, cold, wet, or windy it might be!

Date:

Astronomy

Jan. 28, 2014 Rise Set
Actual Time 7:34 AM CST 5:55 PM CST
Civil Twilight 7:07 AM CST 6:22 PM CST
Nautical Twilight 6:36 AM CST 6:53 PM CST
Astronomical Twilight 6:06 AM CST 7:23 PM CST
Moon 5:16 AM CST (1/28) 3:48 PM CST (1/28)
Length of Visible Light 11h 15m
Length of Day
10h 21m
Waning Crescent, 7% of the Moon is Illuminated
Jan 28
Waning Crescent
Jan 30
New
Feb 6
First Quarter
Feb 14
Full
Feb 22
Last Quarter

Hourly Weather History & Observations

Time (CST) Temp. Windchill Dew Point Humidity Pressure Visibility Wind Dir Wind Speed Gust Speed Precip Events Conditions
12:15 AM 19.4 °F 5.0 °F -7.6 °F 30% 30.42 in 10.0 mi North 16.1 mph - N/A   Overcast
12:35 AM 19.4 °F 6.6 °F -7.6 °F 30% 30.42 in 10.0 mi NNE 12.7 mph - N/A   Overcast
12:55 AM 17.6 °F 2.2 °F -5.8 °F 35% 30.42 in 10.0 mi NNE 17.3 mph - N/A   Overcast
1:15 AM 17.6 °F 2.7 °F -5.8 °F 35% 30.41 in 10.0 mi NNE 16.1 mph - N/A   Overcast
1:35 AM 17.6 °F 3.7 °F -5.8 °F 35% 30.42 in 10.0 mi NNE 13.8 mph - N/A   Overcast
1:55 AM 17.6 °F 1.7 °F -4.0 °F 38% 30.42 in 10.0 mi North 18.4 mph - N/A   Overcast
2:15 AM 17.6 °F 0.9 °F 1.4 °F 49% 30.42 in 10.0 mi North 20.7 mph - N/A   Overcast
2:35 AM 15.8 °F 0.3 °F 8.6 °F 73% 30.43 in 5.0 mi North 16.1 mph - N/A Snow Light Snow
2:55 AM 14.0 °F -1.4 °F 10.4 °F 86% 30.42 in 1.5 mi NNE 15.0 mph - N/A Snow Light Snow
3:15 AM 14.0 °F 1.2 °F 10.4 °F 86% 30.42 in 2.5 mi NNE 10.4 mph - N/A Snow Light Snow
3:35 AM 14.0 °F 1.2 °F 10.4 °F 86% 30.43 in 3.0 mi NNE 10.4 mph - N/A Snow Light Snow
3:55 AM 14.0 °F -0.2 °F 10.4 °F 86% 30.43 in 7.0 mi NNE 12.7 mph - N/A Snow Light Snow
4:15 AM 14.0 °F -0.2 °F 10.4 °F 86% 30.42 in 3.0 mi North 12.7 mph - N/A Snow Light Snow
4:35 AM 14.0 °F -0.8 °F 10.4 °F 86% 30.42 in 5.0 mi North 13.8 mph - N/A Snow Light Snow
4:55 AM 14.0 °F 0.5 °F 10.4 °F 86% 30.41 in 7.0 mi North 11.5 mph - N/A   Scattered Clouds
5:15 AM 14.0 °F -0.2 °F 10.4 °F 86% 30.41 in 7.0 mi NNE 12.7 mph - N/A   Scattered Clouds
5:35 AM 14.0 °F 0.5 °F 10.4 °F 86% 30.42 in 4.0 mi NNE 11.5 mph - N/A Snow Light Snow
5:55 AM 14.0 °F 2.0 °F 10.4 °F 86% 30.43 in 4.0 mi NNE 9.2 mph - N/A Snow Light Snow
6:15 AM 14.0 °F 0.5 °F 10.4 °F 86% 30.43 in 7.0 mi NNE 11.5 mph - N/A   Mostly Cloudy
6:35 AM 14.0 °F 2.0 °F 10.4 °F 86% 30.44 in 10.0 mi NNE 9.2 mph - N/A   Overcast
6:55 AM 14.0 °F 0.5 °F 10.4 °F 86% 30.45 in 10.0 mi NNE 11.5 mph - N/A Snow Light Snow
7:15 AM 14.0 °F 2.0 °F 12.2 °F 93% 30.45 in 7.0 mi NNE 9.2 mph - N/A Snow Light Snow
7:35 AM 14.0 °F 8.2 °F 10.4 °F 86% 30.46 in 7.0 mi NNE 3.5 mph - N/A Snow Light Snow
7:55 AM 14.0 °F 5.1 °F 10.4 °F 86% 30.47 in 10.0 mi NNE 5.8 mph - N/A   Clear
8:15 AM 14.0 °F 5.1 °F 8.6 °F 79% 30.47 in 10.0 mi NNE 5.8 mph - N/A   Clear
8:35 AM 12.2 °F 4.3 °F 8.6 °F 85% 30.48 in 10.0 mi North 4.6 mph - N/A   Clear
8:55 AM 12.2 °F 1.7 °F 10.4 °F 92% 30.49 in 10.0 mi North 6.9 mph - N/A   Clear
9:15 AM 15.8 °F 4.2 °F 12.2 °F 86% 30.50 in 10.0 mi North 9.2 mph - N/A   Clear
9:35 AM 17.6 °F 8.2 °F 10.4 °F 73% 30.50 in 10.0 mi North 6.9 mph - N/A   Mostly Cloudy
9:55 AM 17.6 °F 8.2 °F 10.4 °F 73% 30.51 in 10.0 mi North 6.9 mph - N/A   Mostly Cloudy
10:15 AM 17.6 °F 9.3 °F 10.4 °F 73% 30.51 in 10.0 mi North 5.8 mph - N/A   Scattered Clouds
10:35 AM 17.6 °F 8.2 °F 10.4 °F 73% 30.52 in 10.0 mi North 6.9 mph - N/A   Clear
10:55 AM 17.6 °F 7.3 °F 10.4 °F 73% 30.52 in 10.0 mi North 8.1 mph - N/A   Clear
11:15 AM 19.4 °F - 8.6 °F 63% 30.51 in 10.0 mi Calm Calm - N/A   Clear
11:35 AM 21.2 °F 13.6 °F 10.4 °F 63% 30.51 in 10.0 mi North 5.8 mph - N/A   Clear
11:55 AM 21.2 °F 12.6 °F 10.4 °F 63% 30.51 in 10.0 mi NNW 6.9 mph - N/A   Clear
12:15 PM 21.2 °F 11.7 °F 10.4 °F 63% 30.50 in 10.0 mi North 8.1 mph - N/A   Clear
12:35 PM 23.0 °F 14.7 °F 12.2 °F 63% 30.48 in 10.0 mi North 6.9 mph - N/A   Clear
12:55 PM 23.0 °F 13.9 °F 10.4 °F 59% 30.46 in 10.0 mi NNW 8.1 mph - N/A   Clear
1:15 PM 23.0 °F 18.4 °F 10.4 °F 59% 30.45 in 10.0 mi NW 3.5 mph - N/A   Clear
1:35 PM 26.6 °F 19.1 °F 12.2 °F 55% 30.43 in 10.0 mi NNW 6.9 mph - N/A   Clear
1:55 PM 26.6 °F 20.0 °F 10.4 °F 51% 30.43 in 10.0 mi NNW 5.8 mph - N/A   Clear
2:15 PM 26.6 °F 21.2 °F 10.4 °F 51% 30.41 in 10.0 mi NNW 4.6 mph - N/A   Clear
2:35 PM 26.6 °F - 8.6 °F 47% 30.41 in 10.0 mi Calm Calm - N/A   Clear
2:55 PM 28.4 °F - 8.6 °F 43% 30.41 in 10.0 mi Calm Calm - N/A   Clear
3:15 PM 28.4 °F 22.2 °F 8.6 °F 43% 30.40 in 10.0 mi NW 5.8 mph - N/A   Clear
3:35 PM 28.4 °F 23.3 °F 3.2 °F 34% 30.40 in 10.0 mi WNW 4.6 mph - N/A   Clear
3:55 PM 28.4 °F 23.3 °F 6.8 °F 40% 30.39 in 10.0 mi North 4.6 mph - N/A   Clear
4:15 PM 28.4 °F - 5.0 °F 37% 30.39 in 10.0 mi Calm Calm - N/A   Clear
4:35 PM 28.4 °F - 5.0 °F 37% 30.38 in 10.0 mi Calm Calm - N/A   Clear
4:55 PM 28.4 °F 23.3 °F 5.0 °F 37% 30.37 in 10.0 mi West 4.6 mph - N/A   Clear
5:15 PM 28.4 °F 22.2 °F 5.0 °F 37% 30.37 in 10.0 mi SW 5.8 mph - N/A   Clear
5:35 PM 28.4 °F 22.2 °F 5.0 °F 37% 30.36 in 10.0 mi SSW 5.8 mph - N/A   Clear
5:55 PM 26.6 °F 22.6 °F 6.8 °F 43% 30.37 in 10.0 mi South 3.5 mph - N/A   Clear
6:15 PM 24.8 °F 19.1 °F 5.0 °F 43% 30.37 in 10.0 mi SSW 4.6 mph - N/A   Clear
6:35 PM 23.0 °F 17.0 °F 5.0 °F 46% 30.38 in 10.0 mi SW 4.6 mph - N/A   Clear
6:55 PM 21.2 °F 12.6 °F 5.0 °F 50% 30.38 in 10.0 mi SSW 6.9 mph - N/A   Clear
7:15 PM 21.2 °F 13.6 °F 8.6 °F 58% 30.37 in 10.0 mi SSW 5.8 mph - N/A   Clear
7:35 PM 19.4 °F 10.4 °F 6.8 °F 58% 30.38 in 10.0 mi SSW 6.9 mph - N/A   Clear
7:55 PM 19.4 °F 9.5 °F 6.8 °F 58% 30.38 in 10.0 mi South 8.1 mph - N/A   Clear
8:15 PM 17.6 °F 7.3 °F 6.8 °F 63% 30.37 in 10.0 mi South 8.1 mph - N/A   Clear
8:35 PM 17.6 °F 7.3 °F 6.8 °F 63% 30.36 in 10.0 mi South 8.1 mph - N/A   Clear
8:55 PM 17.6 °F 6.4 °F 6.8 °F 63% 30.36 in 10.0 mi South 9.2 mph - N/A   Clear
9:15 PM 19.4 °F 8.6 °F 8.6 °F 63% 30.36 in 10.0 mi South 9.2 mph - N/A   Clear
9:35 PM 17.6 °F 6.4 °F 5.0 °F 58% 30.36 in 10.0 mi SSW 9.2 mph - N/A   Clear
9:55 PM 17.6 °F 7.3 °F 5.0 °F 58% 30.36 in 10.0 mi SSW 8.1 mph - N/A   Clear
10:15 PM 19.4 °F 8.6 °F 6.8 °F 58% 30.36 in 10.0 mi SSW 9.2 mph - N/A   Clear
10:35 PM 19.4 °F 7.9 °F 6.8 °F 58% 30.36 in 10.0 mi SSW 10.4 mph - N/A   Clear
10:55 PM 19.4 °F 7.9 °F 5.0 °F 54% 30.35 in 10.0 mi SSW 10.4 mph - N/A   Clear
11:15 PM 19.4 °F 8.6 °F 5.0 °F 54% 30.35 in 10.0 mi SSW 9.2 mph - N/A   Clear
11:35 PM 19.4 °F 9.5 °F 6.8 °F 58% 30.35 in 10.0 mi South 8.1 mph - N/A   Clear
11:55 PM 17.6 °F 7.3 °F 6.8 °F 63% 30.34 in 10.0 mi South 8.1 mph - N/A   Clear